Weather History for Hoquiam, WA

Change the Weather History Date:

Thursday, January 2, 2014

  Actual Average Record
Temperature  
Mean Temperature 46 °F 42 °F  
Max Temperature 50 °F 46 °F 56 °F (2001)
Min Temperature 41 °F 37 °F 20 °F (1959)
Degree Days  
Heating Degree Days 19 23  
Month to date heating degree days 40 46  
Cooling Degree Days 0 0  
Month to date cooling degree days 0 0  
Year to date cooling degree days 0 0  
Moisture  
Dew Point -    
Average Humidity    
Maximum Humidity    
Minimum Humidity    
Precipitation  
Precipitation 0.78 in 0.34 in 1.81 in (1954)
Month to date precipitation 0.79 0.68  
Year to date precipitation 0.79 0.68  
Sea Level Pressure  
Sea Level Pressure 30.06 in    
Wind  
Wind Speed 10 mph (South)    
Max Wind Speed 24 mph    
Max Gust Speed 29 mph    
Visibility 5 miles    
Events Rain    
T = Trace of Precipitation, MM = Missing Value Source: NWS Daily Summary

Daily Weather History Graph

Daily Weather History Graph

Search for Another Location

Airport:

Trip Planner

Search our weather history database for the weather conditions in past years. The results will help you decide how hot, cold, wet, or windy it might be!

Date:

Astronomy

Jan. 02, 2014 Rise Set
Actual Time 8:01 AM PST 4:38 PM PST
Civil Twilight 7:26 AM PST 5:13 PM PST
Nautical Twilight 6:47 AM PST 5:52 PM PST
Astronomical Twilight 6:10 AM PST 6:29 PM PST
Moon 8:39 AM PST (1/2) 6:51 PM PST (1/2)
Length of Visible Light 9h 47m
Length of Day
8h 37m
Waxing Crescent, 3% of the Moon is Illuminated
Jan 2
Waxing Crescent
Jan 7
First Quarter
Jan 15
Full
Jan 23
Last Quarter
Jan 30
New

Hourly Weather History & Observations

Time (PST) Temp. Dew Point Humidity Pressure Visibility Wind Dir Wind Speed Gust Speed Precip Events Conditions
12:53 AM - - N/A% 30.24 in 7.0 mi ENE 9.2 mph - 0.00 in   Overcast
1:53 AM - - N/A% 30.23 in 6.0 mi ENE 8.1 mph - 0.00 in   Haze
2:53 AM - - N/A% 30.23 in 6.0 mi ENE 6.9 mph - N/A   Haze
3:53 AM - - N/A% 30.22 in 4.0 mi ENE 6.9 mph - N/A   Haze
4:53 AM - - N/A% 30.20 in 6.0 mi ENE 4.6 mph - N/A   Haze
5:53 AM - - N/A% 30.20 in 6.0 mi ENE 6.9 mph - N/A   Haze
6:53 AM - - N/A% 30.17 in 4.0 mi ENE 9.2 mph - N/A   Haze
7:53 AM - - N/A% 30.15 in 5.0 mi ENE 4.6 mph - N/A   Haze
8:53 AM - - N/A% 30.16 in 4.0 mi East 5.8 mph - N/A   Haze
9:53 AM - - N/A% 30.15 in 6.0 mi NE 6.9 mph - N/A   Haze
10:53 AM - - N/A% 30.14 in 5.0 mi ENE 6.9 mph - N/A   Haze
11:53 AM - - N/A% 30.11 in 6.0 mi NE 5.8 mph - N/A   Haze
12:53 PM - - N/A% 30.09 in 7.0 mi Calm Calm - N/A   Overcast
1:12 PM - - N/A% 30.06 in 7.0 mi Calm Calm - N/A   Overcast
1:53 PM - - N/A% 30.06 in 7.0 mi South 9.2 mph - N/A   Overcast
2:31 PM - - N/A% 30.02 in 7.0 mi South 9.2 mph - N/A   Overcast
2:51 PM - - N/A% 30.01 in 7.0 mi South 11.5 mph - N/A   Overcast
2:53 PM - - N/A% 30.03 in 7.0 mi South 12.7 mph - N/A   Overcast
3:38 PM - - N/A% 29.99 in 2.5 mi South 17.3 mph - 0.01 in   Unknown
3:43 PM - - N/A% 29.99 in 1.8 mi South 18.4 mph - 0.01 in   Unknown
3:53 PM - - N/A% 30.01 in 1.0 mi South 18.4 mph 23.0 mph 0.01 in   Unknown
4:15 PM - - N/A% 29.98 in 2.5 mi South 17.3 mph - 0.01 in Rain Light Rain
4:33 PM - - N/A% 29.98 in 2.5 mi South 17.3 mph - 0.02 in Rain Light Rain
4:44 PM - - N/A% 29.98 in 1.8 mi South 15.0 mph - 0.02 in Rain Rain
4:53 PM - - N/A% 30.00 in 1.5 mi South 17.3 mph 23.0 mph 0.03 in Rain Rain
5:41 PM - - N/A% 29.97 in 2.0 mi South 23.0 mph 29.9 mph 0.06 in Rain Light Rain
5:53 PM - - N/A% 29.99 in 2.0 mi South 17.3 mph - 0.08 in   Unknown
6:36 PM - - N/A% 29.96 in 1.8 mi SW 12.7 mph - 0.09 in Rain Rain
6:47 PM - - N/A% 29.96 in 2.0 mi SW 19.6 mph 26.5 mph 0.12 in Rain Rain
6:53 PM - - N/A% 29.98 in 2.5 mi SSW 21.9 mph 26.5 mph 0.46 in Rain Rain
7:25 PM - - N/A% 29.97 in 3.0 mi West 17.3 mph - 0.05 in Rain Light Rain
7:40 PM - - N/A% 29.97 in 4.0 mi WNW 12.7 mph 21.9 mph 0.09 in Rain Light Rain
7:53 PM - - N/A% 30.00 in 5.0 mi West 10.4 mph - 0.10 in Rain Light Rain
8:46 PM - - N/A% 30.00 in 4.0 mi WSW 10.4 mph - 0.05 in Rain Light Rain
8:53 PM - - N/A% 30.02 in 4.0 mi West 10.4 mph - 0.06 in Rain Light Rain
8:57 PM - - N/A% 30.00 in 4.0 mi West 11.5 mph - 0.01 in Rain Light Rain
9:12 PM - - N/A% 30.01 in 4.0 mi WSW 9.2 mph - 0.02 in Rain Light Rain
9:24 PM - - N/A% 30.01 in 6.0 mi WSW 10.4 mph - 0.03 in Rain Light Rain
9:53 PM - - N/A% 30.05 in 9.0 mi West 11.5 mph - 0.04 in   Overcast
10:53 PM - - N/A% 30.08 in 8.0 mi West 11.5 mph 19.6 mph N/A   Mostly Cloudy
11:40 PM - - N/A% 30.08 in 7.0 mi West 12.7 mph - N/A   Scattered Clouds
11:53 PM - - N/A% 30.11 in 7.0 mi West 10.4 mph - N/A   Scattered Clouds